Location: ČR
(50.0000°N, 15.0000°E)
Time: 14:09:04
(UTC+00:00)

Explorer 7 - Pass Details

Date: 30 October 2021
Orbit: 483 x 675 km, 50.3° (Epoch: 27 November)

Event Time Altitude Azimuth Distance (km) Brightness Sun altitude
Rises 17:55:42 0° 224° (SW) 2,575 10.8 -22.2°
Reaches altitude 10° 17:57:57 10° 215° (SW) 1,715 9.7 -22.6°
Enters shadow 18:00:07 26° 189° (S) 1,031 8.2 -22.9°
Maximum altitude 18:01:29 35° 149° (SSE) 864 - -23.2°
Drops below altitude 10° 18:05:14 10° 83° (E) 1,812 - -23.8°
Sets 18:07:40 0° 75° (ENE) 2,745 - -24.2°
